Location: 237-227 Winthrop St, Rehoboth, MA 02769, USA
(41.8544°N, 71.2370°W)
Time: 19:23:48
(UTC-05:00)

ISS - Visible Passes

Search period start: 30 November 2020 00:00
Search period end: 10 December 2020 00:00
Orbit: 418 x 420 km, 51.6° (Epoch: 01 December)

Date Brightness Start Highest point End Pass type
(mag) Time Alt. Az. Time Alt. Az. Time Alt. Az.
30 Nov -1.6 16:52:41 10° NW 16:54:51 16° N 16:57:01 10° NE visible
30 Nov -0.9 18:29:57 10° NW 18:30:26 12° NNW 18:30:26 12° NNW visible
01 Dec -1.8 17:42:26 10° NW 17:44:48 17° N 17:44:48 17° N visible
02 Dec -1.7 16:54:49 10° NW 16:56:59 16° N 16:59:10 10° NE visible
02 Dec -1.1 18:31:25 10° NW 18:32:11 15° NW 18:32:11 15° NW visible
03 Dec -2.4 17:43:56 10° NW 17:46:40 25° NNE 17:46:40 25° NNE visible
04 Dec -2.1 16:56:26 10° NW 16:59:03 20° NNE 17:01:15 12° ENE visible
04 Dec -1.5 18:32:53 10° NW 18:34:14 22° NW 18:34:14 22° NW visible
05 Dec -3.6 17:45:19 10° NW 17:48:36 50° NNE 17:48:57 47° NE visible
06 Dec -3.0 16:57:47 10° NW 17:00:54 34° NNE 17:03:52 11° E visible
06 Dec -1.8 18:34:36 10° WNW 18:36:52 30° WSW 18:36:52 30° WSW visible
07 Dec -3.3 17:46:50 10° WNW 17:50:09 60° SW 17:52:04 23° SE visible
08 Dec -3.8 16:59:10 10° NW 17:02:32 80° NNE 17:05:54 10° ESE visible
08 Dec -0.6 18:37:25 10° WSW 18:38:53 12° SW 18:40:22 10° SSW visible
09 Dec -1.1 17:48:49 10° W 17:51:26 21° SW 17:54:01 10° S visible
